SL-8 DEB, 21256

Orbit data source: Space-Track

SL-8 DEB, 21256 is space debris in LEO originally from a launch on Tue, 12 Feb 1991 UTC launched from the Plesetsk Missile And Space Complex (PKMTR). Debris objects in space refer to the collection of defunct objects orbiting the Earth. Examples of debris include non-operational satellites, rocket bodies, and fragments generated from explosions, collisions, or faulty payload assembly.

Loading next visibility...
Identifier
21256, 1991-009BN
Orbit
LEO
Country
Flag of CISCIS
Related business
Manufacturer
Unknown
Mission
Spacecraft
Bus & Motor
Unknown
Mass
Unknown
Launch date (UTC)
1991-02-12 (35 years ago)
Launch vehicle
Unknown
Launch site
Plesetsk Missile And Space Complex (PKMTR)
Object type
Payload
Rocket body
Debris
Shape & HBR
Unknown shape, 0.2 m
Radar Cross Section
Small (<0.1 m²)

Expand to show TLE details & history
Last TLE update: 1 day ago

TLE from 1 day ago
0 SL-8 DEB
1 21256U 91009BN  26070.44333073  .00000039  00000-0  73866-3 0  9992
2 21256  73.9740 247.7266 0244982 329.0932  52.2643 11.84161941509775
Epoch: 2026-03-11T10:38Z
TLE epoch observation values (Epoch: 2026-03-11T10:38:23.775Z)
Latitude
22.67095°
Longitude
-74.12231°
Altitude
1,635.945 km
Speed
7.107 km/s
True Right ascension
16h 58m 20s
True Declination
22° 33' 44"
Sunlit
Object was in daylight at epoch
Visualization orbit readout
Latitude
Unknown
Longitude
Unknown
Altitude
Unknown
Speed
Unknown
Apparent Right ascension
Unknown
Apparent Declination
Unknown
Sunlit
N/A
Visualization observer readout
Local Sidereal Time
20:30:23
Azimuth
Unknown
Elevation
Unknown
Doppler factor
Unknown
Orbital elements
Apogee altitude
1,949.611 km
Perigee altitude
1,551.338 km
Semi-major axis
8,128.611 km
Eccentricity
0.0245
Inclination
73.974°
RAAN
247.7266°
Arg. of periapsis
329.0932°
True anomaly
54.5262°
Mean anomaly
52.2643°
Eccentric anomaly
53.39104°
Mean motion
2.96155 °/min
Orbital period
121.56 mins
BSTAR
0.00073866
Loading maneuver chart data...
Computing Atmospheric mass density...
Loading historical data...
Loading historical data...
Loading historical data...
Loading historical data...
Loading historical data...
Loading historical data...
Loading historical data...

Documentation

Showing up to 5 results
|